Location: Demmingen
(48.6757°N, 10.4375°E)
Time: 09:10:29
(UTC+00:00)

SL-08 R/B - Pass Details

Date: 23 May 2024
Orbit: 946 x 992 km, 83.0° (Epoch: 19 May)

Event Time Altitude Azimuth Distance (km) Brightness Sun altitude
Exits shadow 00:50:18 28° 203° (SSW) 1,731 5.2 -17.5°
Maximum altitude 00:53:44 71° 281° (W) 1,019 4.5 -17.3°
Drops below altitude 10° 00:59:53 10° 5° (N) 2,693 7.9 -16.8°
Sets 01:02:24 0° 8° (N) 3,638 8.9 -16.7°
